Simultaneous Nadir Overpasses (SNOs) Predictions

Prediction of SNOs between METOP-C and LANDSAT-8 Satellite Orbit:

Table of predicted SNOs for the next 14.0 days since TLE Epoch: 5/8/2021
Index Date (METOP-C) Time (METOP-C) Lat,Lon (METOP-C) SZA (METOP-C ) Date (LANDSAT-8) Time (LANDSAT-8) Lat,Lon (LANDSAT-8) SZA (LANDSAT-8 ) Distance(km) Time Diff (sec)
1 05/10/2021 14:11:37 -81.13,-173.09 114.44 05/10/2021 14:12:39 -81.13,-173.02 114.40 1.45 62
2 05/10/2021 15:02:17 81.14, -5.32 65.62 05/10/2021 15:02:05 81.14, -5.30 65.61 0.58 12
3 05/13/2021 09:46:00 -81.12,-107.01 115.18 05/13/2021 09:46:57 -81.12,-106.87 115.14 2.35 57
4 05/13/2021 10:36:39 81.14, 61.07 64.91 05/13/2021 10:36:22 81.14, 61.18 64.92 1.95 17
5 05/16/2021 05:20:21 -81.12, -40.57 115.84 05/16/2021 05:21:13 -81.12, -40.42 115.80 2.53 52
6 05/16/2021 06:11:00 81.14, 127.44 64.25 05/16/2021 06:10:38 81.14, 127.61 64.25 2.93 22
7 05/19/2021 00:54:42 -81.13, 26.23 116.41 05/19/2021 00:55:29 -81.14, 26.34 116.38 1.90 47
8 05/19/2021 01:45:21 81.15,-165.83 63.67 05/19/2021 01:44:54 81.16,-165.65 63.68 3.18 27
9 05/21/2021 20:29:04 -81.13, 92.64 116.99 05/21/2021 20:29:46 -81.13, 92.67 116.97 0.58 42



Historial Predications of SNOs between METOP-C and LANDSAT-8
